Tracking 31027 objects as of 19-Jul-2025
HD Live streaming from Space Station
objects crossing your sky now

DMSP 5D-2 F13 DEB

Track DMSP 5D-2 F13 DEB now!
10-day predictions


NORAD ID: 40470
Int'l Code: 1995-015BN
Perigee: 798.6 km
Apogee: 863.0 km
Inclination: 99.0 °
Period: 101.4 minutes
Semi major axis: 7201 km
RCS: Unknown
Launch date: March 24, 1995
Source: United States (US)
Launch site: AIR FORCE WESTERN TEST RANGE (AFWTR)

Note: This is SATELLITE DEBRIS
Your satellite tracking list
FLOCK 4X 28
Track 1 satellite(s)




NASA's NSSDC Master Catalog

Two Line Element Set (TLE):
1 40470U 95015BN  25198.40692177  .00002679  00000-0  12563-2 0  9999
2 40470  98.9778 187.5445 0044731 329.6066  30.2518 14.20492085532330
Source of the keplerian elements: AFSPC